FW7746 Weather Reports


time (UTC)temp
F
wind
direction
speed
knots
gust
knots
rain 1hr
in
rain 24hr
in
rain mn
in
humidity
%
barometer
mb
20260906163603 50 114 0.9 1.7 0.00 0.24 0.18 78 1015.2
20260906163105 50 184 0.0 1.7 0.00 0.24 0.18 80 1015.3
20260906162604 50 211 0.9 4.3 0.00 0.24 0.18 80 1015.3
20260906162103 50 211 0.9 2.6 0.00 0.24 0.18 80 1015.2
20260906161604 49 164 0.0 0.9 0.00 0.24 0.18 82 1015.2
20260906161104 49 138 0.0 1.7 0.00 0.24 0.18 83 1015.1
20260906160604 49 117 0.9 4.3 0.00 0.24 0.18 83 1015.1
20260906160104 49 203 0.0 1.7 0.00 0.24 0.18 84 1015.1
20260906155604 49 196 0.0 0.0 0.00 0.24 0.18 85 1015.0
20260906155104 48 196 0.0 1.7 0.00 0.24 0.18 85 1015.2
20260906154604 48 221 0.9 1.7 0.00 0.24 0.18 86 1015.2
20260906154104 48 206 0.0 2.6 0.00 0.24 0.18 86 1015.1
20260906153104 47 164 0.0 1.7 0.00 0.24 0.18 87 1015.0
20260906152604 47 196 0.0 0.0 0.00 0.24 0.18 87 1015.0
20260906152105 46 200 0.0 1.7 0.00 0.24 0.18 87 1014.9
20260906151604 46 158 0.0 2.6 0.00 0.24 0.18 88 1015.0
20260906151104 46 140 0.0 0.0 0.00 0.24 0.18 89 1015.0
20260906150104 45 196 0.0 0.0 0.00 0.24 0.18 90 1015.0
20260906145604 44 198 0.0 0.9 0.00 0.24 0.18 91 1015.0
20260906145104 44 219 0.0 1.7 0.00 0.24 0.18 92 1015.0
20260906144604 43 198 0.0 0.9 0.00 0.24 0.18 92 1014.9
20260906144104 43 186 0.0 0.0 0.00 0.24 0.18 92 1014.8
20260906143103 43 186 0.0 0.0 0.00 0.24 0.18 92 1014.8
20260906142604 43 186 0.0 0.0 0.00 0.24 0.18 92 1014.8
20260906142104 43 186 0.0 0.0 0.00 0.24 0.18 92 1014.7
20260906141604 43 186 0.0 0.0 0.00 0.24 0.18 92 1014.6
20260906140604 43 185 0.0 0.0 0.00 0.24 0.18 92 1014.6
20260906140104 43 180 0.0 0.9 0.00 0.24 0.18 92 1014.6
20260906135104 43 173 0.0 0.9 0.00 0.24 0.18 92 1014.7
20260906134604 42 193 0.0 1.7 0.00 0.24 0.18 92 1014.6
20260906134103 43 201 0.0 0.0 0.00 0.24 0.18 92 1014.6
20260906133604 43 201 0.0 0.0 0.00 0.24 0.18 92 1014.5
20260906133104 43 201 0.0 0.0 0.00 0.24 0.18 92 1014.4
20260906132604 43 201 0.0 0.0 0.00 0.24 0.18 92 1014.4
20260906132104 43 175 0.0 0.0 0.00 0.24 0.18 92 1014.3
20260906131604 43 174 0.0 0.0 0.00 0.24 0.18 92 1014.3
20260906130604 43 173 0.0 0.0 0.00 0.24 0.18 92 1014.1
20260906125604 44 173 0.0 0.0 0.00 0.24 0.18 92 1014.3
20260906124604 44 161 0.0 1.7 0.00 0.24 0.18 92 1014.4
20260906124104 44 176 0.0 2.6 0.00 0.24 0.18 92 1014.6
20260906123604 44 173 0.0 0.9 0.00 0.24 0.18 92 1014.7
20260906123104 44 175 0.0 0.0 0.00 0.24 0.18 92 1014.7
20260906122604 44 173 0.0 1.7 0.00 0.24 0.18 92 1014.7
20260906122104 44 188 0.0 0.9 0.00 0.24 0.18 93 1014.8
20260906121104 44 188 0.0 0.9 0.00 0.24 0.18 93 1014.7
20260906120103 44 207 0.0 1.7 0.00 0.24 0.18 93 1014.6
20260906115603 44 113 0.0 0.0 0.00 0.24 0.18 93 1014.6
20260906114603 44 113 0.0 0.0 0.01 0.24 0.18 93 1014.5
20260906114104 44 113 0.0 0.0 0.01 0.24 0.18 93 1014.3
20260906113604 44 113 0.0 0.0 0.01 0.24 0.18 92 1014.2
20260906113104 44 113 0.0 0.0 0.01 0.24 0.18 92 1014.4
20260906112103 45 112 0.0 0.0 0.01 0.24 0.18 92 1014.8
20260906111604 45 112 0.0 0.0 0.02 0.24 0.18 92 1014.8
20260906111104 45 112 0.0 0.0 0.03 0.24 0.18 92 1014.9
20260906110603 45 111 0.0 0.9 0.04 0.24 0.18 92 1015.0
20260906110104 45 53 0.0 2.6 0.05 0.24 0.18 92 1015.2
20260906105604 45 195 0.0 0.9 0.06 0.24 0.18 92 1015.2
20260906105104 45 218 0.0 1.7 0.05 0.23 0.17 92 1015.3
20260906104604 45 213 0.0 1.7 0.06 0.23 0.17 92 1015.3
20260906104103 45 216 0.0 0.9 0.06 0.23 0.17 93 1015.4
20260906103604 45 241 0.9 5.2 0.07 0.23 0.17 93 1015.4
20260906103104 46 188 0.0 0.9 0.08 0.23 0.17 93 1015.4
20260906102604 46 168 0.0 0.0 0.09 0.23 0.17 93 1015.4
20260906102103 46 180 0.0 1.7 0.09 0.23 0.17 93 1015.4
20260906101604 46 218 0.0 2.6 0.10 0.22 0.16 93 1015.4
20260906100604 46 145 0.0 0.9 0.09 0.20 0.14 93 1015.6
20260906100105 46 167 0.0 0.9 0.09 0.19 0.13 93 1015.6
20260906095604 46 160 0.0 0.9 0.09 0.18 0.12 93 1015.6
20260906095103 46 211 0.0 1.7 0.09 0.18 0.12 93 1015.6
20260906094104 46 214 0.0 0.0 0.09 0.17 0.11 93 1015.7
20260906093604 46 214 0.0 0.0 0.08 0.16 0.10 93 1015.7
20260906093104 47 214 0.0 0.9 0.07 0.15 0.09 93 1015.6
20260906092604 47 214 0.0 0.0 0.06 0.14 0.08 93 1015.7
20260906092103 47 214 0.0 0.0 0.06 0.14 0.08 93 1015.6
20260906091604 47 214 0.0 0.9 0.04 0.12 0.06 93 1015.6
20260906090604 47 160 0.0 0.0 0.04 0.11 0.05 93 1015.6
20260906090105 47 160 0.0 0.0 0.03 0.10 0.04 93 1015.6
20260906085604 48 160 0.0 0.0 0.02 0.09 0.03 93 1015.6
20260906085105 48 160 0.0 0.0 0.02 0.10 0.03 93 1015.5
20260906084603 47 160 0.0 0.0 0.03 0.10 0.03 93 1015.4
20260906084104 47 160 0.0 0.0 0.02 0.09 0.02 93 1015.4
20260906083603 47 160 0.0 0.0 0.02 0.09 0.02 93 1015.4
20260906083104 47 160 0.0 0.0 0.02 0.09 0.02 93 1015.4
20260906081604 47 160 0.0 0.0 0.02 0.09 0.02 92 1015.5
20260906080603 47 160 0.0 0.0 0.01 0.08 0.01 92 1015.5
20260906080104 47 160 0.0 0.0 0.01 0.08 0.01 92 1015.6
20260906075603 47 160 0.0 0.0 0.01 0.08 0.01 92 1015.6
20260906075104 48 160 0.0 0.0 0.01 0.08 0.01 91 1015.7
20260906074604 48 160 0.0 0.0 0.00 0.07 0.00 91 1015.8
20260906074104 48 160 0.0 0.9 0.00 0.07 0.00 91 1015.9
20260906073104 48 160 0.0 0.0 0.00 0.07 0.00 90 1015.6
20260906072604 48 160 0.0 0.9 0.00 0.07 0.00 90 1015.6
20260906072104 48 161 0.0 0.9 0.00 0.07 0.00 90 1015.4
20260906071604 48 188 0.0 0.0 0.00 0.07 0.00 90 1015.3
20260906071103 48 200 0.0 0.0 0.00 0.07 0.00 90 1015.3
20260906070604 48 202 0.0 0.0 0.00 0.07 0.00 90 1015.3
20260906070104 48 234 0.0 0.0 0.00 0.07 0.00 91 1015.4
20260906064604 48 237 0.0 0.0 0.00 0.07 0.07 91 1015.1
20260906064104 48 237 0.0 0.0 0.00 0.07 0.07 90 1014.9
20260906063604 48 237 0.0 0.0 0.00 0.07 0.07 91 1015.4
20260906063104 48 237 0.0 0.0 0.00 0.07 0.07 91 1015.1
20260906062605 48 237 0.0 0.0 0.00 0.07 0.07 91 1015.3
20260906062104 48 237 0.0 0.9 0.00 0.07 0.07 92 1015.4
20260906061604 48 236 0.0 0.0 0.00 0.07 0.07 92 1015.4
20260906061105 48 236 0.0 0.0 0.00 0.07 0.07 92 1015.4
20260906060605 49 236 0.0 0.0 0.00 0.07 0.07 92 1015.5
20260906060104 49 236 0.0 0.0 0.00 0.07 0.07 91 1015.7
20260906055604 49 236 0.0 0.0 0.00 0.07 0.07 92 1015.8
20260906055104 49 236 0.0 0.0 0.00 0.07 0.07 92 1015.8
20260906054604 49 236 0.0 0.0 0.00 0.07 0.07 91 1015.8
20260906054104 49 236 0.0 0.0 0.00 0.07 0.07 91 1016.0
20260906053604 49 236 0.0 0.0 0.00 0.07 0.07 91 1016.0
20260906052604 49 236 0.0 0.0 0.01 0.07 0.07 90 1016.2
20260906052104 49 236 0.0 0.0 0.01 0.07 0.07 89 1016.3
20260906051604 49 236 0.0 0.0 0.02 0.07 0.07 89 1016.3
20260906051104 49 236 0.0 0.0 0.06 0.07 0.07 89 1016.4
20260906050603 49 236 0.0 0.0 0.06 0.07 0.07 89 1016.4
20260906045104 48 236 0.0 0.0 0.06 0.07 0.07 88 1016.5
20260906044604 48 236 0.0 0.0 0.06 0.07 0.07 88 1016.5
20260906044104 49 236 0.0 0.0 0.06 0.07 0.07 88 1016.6
20260906043604 49 236 0.0 1.7 0.06 0.07 0.07 87 1016.6
20260906043104 49 231 0.9 2.6 0.05 0.06 0.06 86 1016.5
20260906042604 49 268 0.0 4.3 0.05 0.06 0.06 86 1016.7
20260906042104 50 275 0.0 0.9 0.05 0.06 0.06 84 1016.8
20260906041604 51 288 0.0 0.0 0.04 0.05 0.05 81 1016.9
20260906041104 52 304 0.0 2.6 0.00 0.01 0.01 75 1016.9
20260906040604 54 206 0.0 2.6 0.00 0.01 0.01 72 1016.8
20260906040105 55 165 0.0 2.6 0.00 0.01 0.01 70 1016.7
20260906035604 55 216 0.9 2.6 0.00 0.01 0.01 67 1016.5
20260906035104 56 328 0.0 1.7 0.00 0.01 0.01 66 1016.2
20260906034604 56 329 0.0 0.0 0.00 0.01 0.01 64 1016.0
20260906034105 56 329 0.0 1.7 0.00 0.01 0.01 64 1015.8
20260906033604 56 329 0.0 0.0 0.00 0.01 0.01 63 1015.9
20260906033104 56 329 0.0 0.0 0.00 0.01 0.01 63 1015.7
20260906032604 56 329 0.0 0.0 0.00 0.01 0.01 63 1015.7
20260906031605 56 329 0.0 0.9 0.00 0.01 0.01 63 1015.6
20260906030604 56 328 0.0 0.0 0.00 0.02 0.01 64 1015.7
20260906030104 56 328 0.0 0.0 0.00 0.02 0.01 64 1015.7
20260906025104 56 329 0.0 0.0 0.00 0.03 0.01 63 1015.5
20260906024604 57 329 0.0 7.0 0.00 0.04 0.01 63 1015.3
20260906024103 57 321 0.0 1.7 0.00 0.04 0.01 61 1015.2
20260906023104 57 329 0.0 2.6 0.00 0.07 0.01 59 1015.1
20260906022604 57 267 0.0 1.7 0.00 0.08 0.01 59 1015.1
20260906022104 58 283 0.0 2.6 0.00 0.08 0.01 59 1015.2
20260906021104 58 284 0.9 2.6 0.00 0.08 0.01 57 1015.1
20260906020605 58 306 0.9 2.6 0.00 0.08 0.01 57 1015.0
20260906020105 58 241 0.0 2.6 0.00 0.08 0.01 58 1015.0
20260906015604 58 331 1.7 4.3 0.00 0.08 0.01 57 1014.9
20260906015104 59 298 0.9 2.6 0.00 0.08 0.01 57 1014.8
20260906014604 59 328 1.7 7.8 0.00 0.08 0.01 56 1014.9
20260906014104 59 338 0.9 8.7 0.00 0.08 0.01 57 1014.9
20260906013604 59 325 1.7 5.2 0.00 0.08 0.01 56 1015.0
20260906013105 59 326 0.9 10.4 0.00 0.08 0.01 56 1014.8
20260906012604 59 302 0.9 2.6 0.00 0.08 0.01 54 1014.8
20260906012103 60 302 0.9 2.6 0.00 0.08 0.01 54 1014.9
20260906011604 60 321 0.0 2.6 0.00 0.08 0.01 54 1014.8
20260906010604 60 324 1.7 7.0 0.00 0.08 0.01 53 1014.9
20260906010104 60 328 1.7 7.0 0.00 0.08 0.01 53 1014.8
20260906005604 61 321 0.9 4.3 0.00 0.08 0.01 53 1014.8
20260906004604 61 328 1.7 4.3 0.00 0.08 0.01 54 1014.7
20260906003604 61 326 3.5 7.0 0.00 0.08 0.01 53 1014.6
20260906003104 61 337 0.9 2.6 0.00 0.08 0.01 55 1014.9
20260906002604 61 328 1.7 7.0 0.00 0.08 0.01 55 1014.9
20260906002104 60 311 0.9 5.2 0.00 0.08 0.01 54 1014.9
20260906001604 60 322 2.6 7.0 0.00 0.08 0.01 54 1014.9
20260906001104 61 330 1.7 4.3 0.00 0.08 0.01 54 1014.9
20260906000604 61 326 1.7 2.6 0.00 0.08 0.01 54 1014.9
20260905235604 61 327 1.7 2.6 0.00 0.08 0.01 53 1014.9
20260905235104 61 328 1.7 2.6 0.00 0.08 0.01 52 1014.9
20260905234605 62 328 3.5 8.7 0.00 0.08 0.01 51 1014.9
20260905234104 62 320 0.9 2.6 0.00 0.08 0.01 51 1014.8
20260905233604 62 318 0.9 2.6 0.00 0.08 0.01 50 1014.7
20260905233104 63 273 0.9 2.6 0.00 0.08 0.01 48 1014.8
20260905232604 64 340 0.0 0.0 0.00 0.08 0.01 44 1014.7
20260905232104 65 350 0.0 0.0 0.00 0.08 0.01 43 1014.6
20260905231604 65 350 0.0 0.0 0.00 0.08 0.01 42 1014.6
20260905231104 65 344 0.0 0.0 0.00 0.08 0.01 40 1014.6
20260905230105 65 334 0.0 0.0 0.00 0.08 0.01 40 1014.7
20260905225604 65 334 0.0 0.0 0.00 0.08 0.01 42 1014.7
20260905224604 65 121 0.0 0.0 0.00 0.08 0.01 41 1014.9
20260905224104 67 123 0.0 0.9 0.00 0.08 0.01 40 1014.9
20260905223605 66 139 0.0 0.9 0.00 0.08 0.01 40 1015.0
20260905223104 66 140 0.0 0.0 0.00 0.08 0.01 41 1015.0
20260905222604 66 140 0.0 0.0 0.00 0.08 0.01 39 1015.1
20260905222105 68 74 1.7 6.1 0.00 0.08 0.01 38 1015.1
20260905221604 67 93 0.9 2.6 0.00 0.08 0.01 40 1015.2
20260905221104 66 174 0.0 1.7 0.00 0.08 0.01 42 1015.3
20260905220604 67 167 0.0 0.0 0.00 0.09 0.01 39 1015.4
20260905220105 68 82 0.0 1.7 0.00 0.10 0.01 41 1015.4
20260905215604 67 128 0.0 1.7 0.00 0.12 0.01 41 1015.3
20260905215104 66 138 0.0 0.0 0.00 0.12 0.01 43 1015.3
20260905214104 67 142 0.0 2.6 0.00 0.13 0.01 41 1015.3
20260905213604 66 84 0.0 2.6 0.00 0.13 0.01 44 1015.3
20260905213104 66 59 0.0 0.0 0.00 0.13 0.01 44 1015.4
20260905212604 67 59 0.0 0.0 0.00 0.13 0.01 44 1015.4
20260905212104 65 58 0.0 4.3 0.00 0.13 0.01 45 1015.5
20260905211604 65 68 0.0 1.7 0.00 0.13 0.01 45 1015.5
20260905211104 66 67 0.9 2.6 0.00 0.13 0.01 46 1015.6
20260905210604 64 83 0.0 1.7 0.00 0.13 0.01 49 1015.7
20260905205604 62 96 0.0 0.0 0.00 0.13 0.01 51 1015.9
20260905205104 63 96 0.9 2.6 0.00 0.13 0.01 46 1015.9
20260905204604 63 149 0.0 0.0 0.00 0.13 0.01 48 1015.9
20260905203604 65 156 0.0 0.0 0.00 0.13 0.01 45 1016.1
20260905203104 63 96 0.0 2.6 0.00 0.13 0.01 46 1016.1
20260905202604 66 108 0.9 2.6 0.00 0.13 0.01 44 1016.2
20260905201604 63 350 0.0 2.6 0.00 0.13 0.01 49 1016.2
20260905201104 63 226 0.9 4.3 0.00 0.13 0.01 46 1016.2
20260905200604 64 117 0.0 2.6 0.00 0.13 0.01 45 1016.2
20260905195604 63 89 0.0 2.6 0.00 0.13 0.01 48 1016.2
20260905195104 63 101 0.0 2.6 0.00 0.13 0.01 48 1016.4
20260905194105 64 137 0.0 0.0 0.00 0.13 0.01 47 1016.5
20260905193605 64 122 0.0 1.7 0.00 0.13 0.01 49 1016.5
20260905193104 63 126 0.0 2.6 0.00 0.13 0.01 49 1016.6
20260905192604 63 211 0.0 2.6 0.00 0.13 0.01 49 1016.5
20260905190605 59 216 0.0 1.7 0.00 0.13 0.01 58 1016.9
20260905190104 59 216 0.0 0.9 0.00 0.13 0.01 57 1016.9
20260905185605 60 218 0.0 0.0 0.00 0.13 0.01 55 1016.9
20260905185104 60 221 0.0 0.0 0.00 0.13 0.01 56 1016.9
20260905183604 59 254 0.0 0.0 0.00 0.13 0.01 61 1017.2
20260905183104 59 254 0.0 0.0 0.00 0.13 0.01 61 1017.1
20260905182605 58 256 0.0 2.6 0.00 0.13 0.01 64 1017.2
20260905182104 59 196 0.0 1.7 0.00 0.13 0.01 63 1017.2
20260905181605 58 207 0.0 0.0 0.00 0.13 0.01 64 1017.4
20260905181104 58 209 0.0 1.7 0.00 0.13 0.01 63 1017.4
20260905180604 58 211 0.9 2.6 0.00 0.13 0.01 62 1017.5
20260905180104 58 143 0.0 1.7 0.00 0.13 0.01 64 1017.6
20260905175605 57 144 0.0 0.0 0.00 0.13 0.01 65 1017.6
20260905175104 57 140 0.0 0.0 0.00 0.13 0.01 66 1017.7
20260905174604 56 128 0.0 1.7 0.00 0.13 0.01 67 1017.7
20260905174104 56 160 0.0 0.9 0.00 0.13 0.01 69 1017.8
20260905173604 55 179 0.0 1.7 0.00 0.13 0.01 69 1017.8
20260905173105 55 177 0.9 2.6 0.00 0.13 0.01 70 1017.8
20260905172604 55 135 0.9 2.6 0.00 0.13 0.01 70 1017.8
20260905171604 54 164 0.0 0.0 0.00 0.13 0.01 74 1017.9
20260905170604 53 164 0.0 0.9 0.00 0.13 0.01 78 1017.9
20260905170104 52 165 0.0 0.0 0.00 0.13 0.01 80 1017.9
20260905165604 51 165 0.0 0.0 0.00 0.13 0.01 82 1017.8
20260905165104 50 165 0.0 0.9 0.00 0.13 0.01 84 1017.8
20260905164604 49 204 0.0 0.9 0.00 0.13 0.01 86 1017.8